Weather in Maumere

Indonesia     8°37′19″S   122°12′04″E
temp.,
°C
wind,
m/s
gust,
m/s
humid.,
%
clouds,
%
prec.,
mm/h
press.,
hPa
HPBL,
m
17 may, mon
mon1723:00+27s457498 0.0 1010310
02:00+26s44748 0.0 1009315
05:00+26s45766 0.0 1009352
08:00+27sse33715 0.0 1011400
11:00+29ne2258100 0.0 1010320
14:00+29nne215799 0.0 1008287
17:00+29e225920 0.0 1008817
20:00+27s43708 0.0 1010229
18 may, tue
tue1823:00+27s447074 0.0 1010236
02:00+26s44755 0.0 1009259
05:00+26s44786 0.0 1009259
08:00+27sse347416 0.1 1010482
11:00+28ene2269100 0.0 1009334
14:00+28nne326783 0.1 1007418
17:00+29s23657 0.0 1008725
20:00+27sse557860 0.0 1010307
19 may, wed
wed1923:00+26sse4477100 0.0 1010263
02:00+26s44745 0.0 1009240
05:00+26s55785 0.0 1008271
08:00+27sse45763 0.0 1010421
11:00+29ese23637 0.0 1009315
14:00+29nne436712 0.0 1006333
17:00+29ene01643 0.0 1007591
20:00+27s557616 0.0 1010236
20 may, thu
thu2023:00+26s447511 0.0 1010237
02:00+27s44779 0.0 1009247
05:00+27sse347813 0.0 1009344
08:00+28sse33716 0.0 1011509
11:00+29ne22652 0.0 1009276
14:00+29nnw21645 0.0 1007295
17:00+30s33655 0.0 1008761
20:00+27s567920 0.0 1010300
21 may, fri
fri2123:00+27s5581100 0.0 1011324
02:00+27s457783 0.0 1010370
05:00+27s44807 0.0 1010288
08:00+28sse447687 0.0 1011439
11:00+30se136582 0.0 1009445
14:00+31ssw136164 0.0 1007454
17:00+29sw236899 0.1 1008393
20:00+27s557910 0.1 1011278